Location: Asheville, NC
(35.6000°N, 82.5500°W)
Time: 13:01:27
(UTC-04:00)

STRAND 1 - Pass Details

Date: 12 January 2018
Orbit: 769 x 781 km, 98.5° (Epoch: 17 June)

Event Time Altitude Azimuth Distance (km) Brightness Sun altitude
Rises 06:38:47 0° 146° (SE) 3,225 ? -12.3°
Reaches altitude 10° 06:41:12 10° 139° (SE) 2,301 ? -11.9°
Maximum altitude 06:45:53 39° 71° (ENE) 1,139 ? -11.0°
Drops below altitude 10° 06:50:35 10° 4° (N) 2,313 ? -10.1°
Sets 06:53:01 0° 357° (N) 3,244 ? -9.6°
